When you browse on this site, cookies collect data to enhance your experience and personalize the content and advertising you see.
Visit our Privacy Policy to learn more. By continuing to use the site, you agree to this use of cookies and data.
  • In Romania
  • List of Countries
  • For 7 days
  • Water Temperature
  • Weather Map
  • Weather Widgets
  • user-avatar
    Login

    Hourly Weather Newport

    Today, 29 May, Friday

    Time Temperature Precipitation Wind Pressure Humidity
    00:00 +9°C° 0 mm 6 mps 768 mmHg 74%
    01:00 +9°C° 0 mm 6 mps 768 mmHg 76%
    02:00 +9°C° 0 mm 6 mps 768 mmHg 79%
    03:00 +9°C° 0 mm 6 mps 768 mmHg 81%
    04:00 +10°C° 0 mm 6 mps 768 mmHg 80%
    05:00 +10°C° 0 mm 6 mps 767 mmHg 80%
    06:00 +11°C° 0 mm 6 mps 767 mmHg 79%
    07:00 +14°C° 0 mm 6 mps 767 mmHg 73%
    08:00 +15°C° 0 mm 6 mps 767 mmHg 67%
    09:00 +16°C° 0 mm 6 mps 767 mmHg 61%
    10:00 +17°C° 0 mm 6 mps 767 mmHg 58%
    11:00 +19°C° 0 mm 6 mps 767 mmHg 55%
    12:00 +19°C° 0 mm 6 mps 766 mmHg 53%
    13:00 +19°C° 0 mm 6 mps 766 mmHg 53%
    14:00 +20°C° 0 mm 6 mps 766 mmHg 53%
    15:00 +20°C° 0 mm 6 mps 765 mmHg 53%
    16:00 +19°C° 0 mm 5 mps 765 mmHg 56%
    17:00 +17°C° 0 mm 5 mps 765 mmHg 58%
    18:00 +17°C° 0 mm 5 mps 764 mmHg 61%
    19:00 +15°C° 0 mm 5 mps 764 mmHg 62%
    20:00 +13°C° 0 mm 5 mps 765 mmHg 63%
    21:00 +10°C° 0 mm 5 mps 765 mmHg 64%
    22:00 +10°C° 0 mm 6 mps 765 mmHg 67%
    23:00 +9°C° 0 mm 6 mps 765 mmHg 69%

    Tomorrow, 30 May, Saturday

    Time Temperature Precipitation Wind Pressure Humidity
    00:00 +8°C° 0 mm 6 mps 765 mmHg 72%
    01:00 +8°C° 0 mm 5 mps 764 mmHg 77%
    02:00 +7°C° 0 mm 5 mps 764 mmHg 82%
    03:00 +7°C° 0 mm 5 mps 764 mmHg 87%
    04:00 +8°C° 0 mm 5 mps 764 mmHg 85%
    05:00 +9°C° 0 mm 5 mps 764 mmHg 84%
    06:00 +10°C° 0 mm 5 mps 764 mmHg 83%
    07:00 +13°C° 0 mm 5 mps 764 mmHg 78%
    08:00 +15°C° 0 mm 5 mps 764 mmHg 73%
    09:00 +17°C° 0 mm 5 mps 764 mmHg 68%
    10:00 +19°C° 0 mm 5 mps 764 mmHg 64%
    11:00 +20°C° 0 mm 5 mps 764 mmHg 61%
    12:00 +20°C° 0 mm 5 mps 763 mmHg 57%
    13:00 +20°C° 0 mm 5 mps 763 mmHg 58%
    14:00 +20°C° 0 mm 5 mps 763 mmHg 58%
    15:00 +20°C° 0 mm 5 mps 763 mmHg 59%
    16:00 +20°C° 0 mm 5 mps 763 mmHg 61%
    17:00 +19°C° 0 mm 5 mps 762 mmHg 63%
    18:00 +19°C° 0 mm 5 mps 762 mmHg 66%
    19:00 +16°C° 0 mm 5 mps 763 mmHg 69%
    20:00 +15°C° 0 mm 6 mps 763 mmHg 72%
    21:00 +13°C° 0 mm 6 mps 763 mmHg 76%
    22:00 +13°C° 0 mm 6 mps 763 mmHg 77%
    23:00 +11°C° 0 mm 6 mps 763 mmHg 79%

    Day after tomorrow, 31 May, Sunday

    Time Temperature Precipitation Wind Pressure Humidity
    00:00 +11°C° 0 mm 6 mps 763 mmHg 81%
    01:00 +10°C° 0 mm 6 mps 763 mmHg 83%
    02:00 +10°C° 0 mm 6 mps 763 mmHg 85%
    03:00 +10°C° 0 mm 5 mps 763 mmHg 87%
    04:00 +12°C° 0 mm 5 mps 763 mmHg 84%
    05:00 +12°C° 0 mm 5 mps 763 mmHg 80%
    06:00 +13°C° 0 mm 6 mps 764 mmHg 77%
    07:00 +14°C° 0 mm 6 mps 764 mmHg 73%
    08:00 +16°C° 0 mm 6 mps 764 mmHg 68%
    09:00 +17°C° 0 mm 6 mps 764 mmHg 64%
    10:00 +19°C° 0 mm 6 mps 764 mmHg 60%
    11:00 +19°C° 0 mm 6 mps 764 mmHg 56%
    12:00 +20°C° 0 mm 5 mps 764 mmHg 52%
    13:00 +20°C° 0 mm 5 mps 764 mmHg 54%
    14:00 +20°C° 0 mm 5 mps 764 mmHg 55%
    15:00 +20°C° 0 mm 5 mps 764 mmHg 56%
    16:00 +19°C° 0 mm 5 mps 764 mmHg 59%
    17:00 +19°C° 0 mm 5 mps 764 mmHg 61%
    18:00 +19°C° 0 mm 5 mps 764 mmHg 64%
    19:00 +16°C° 0 mm 5 mps 764 mmHg 67%
    20:00 +15°C° 0 mm 6 mps 764 mmHg 70%
    21:00 +13°C° 0 mm 6 mps 764 mmHg 72%
    22:00 +11°C° 0 mm 6 mps 764 mmHg 73%
    23:00 +11°C° 0 mm 6 mps 764 mmHg 74%

    1 June, Monday

    Time Temperature Precipitation Wind Pressure Humidity
    00:00 +10°C° 0 mm 6 mps 764 mmHg 76%
    01:00 +9°C° 0 mm 6 mps 764 mmHg 78%
    02:00 +9°C° 0 mm 6 mps 764 mmHg 79%
    03:00 +9°C° 0 mm 5 mps 764 mmHg 81%
    04:00 +9°C° 0 mm 5 mps 764 mmHg 79%
    05:00 +10°C° 0 mm 5 mps 764 mmHg 76%
    06:00 +11°C° 0 mm 6 mps 764 mmHg 73%
    07:00 +13°C° 0 mm 5 mps 764 mmHg 69%
    08:00 +15°C° 0 mm 5 mps 764 mmHg 66%
    09:00 +17°C° 0 mm 5 mps 764 mmHg 62%
    10:00 +19°C° 0 mm 4 mps 763 mmHg 59%
    11:00 +20°C° 0 mm 4 mps 763 mmHg 56%
    12:00 +21°C° 0 mm 3 mps 763 mmHg 53%
    13:00 +21°C° 0 mm 3 mps 763 mmHg 53%
    14:00 +21°C° 0 mm 3 mps 763 mmHg 53%
    15:00 +21°C° 0 mm 3 mps 762 mmHg 53%
    16:00 +21°C° 0 mm 2 mps 762 mmHg 58%
    17:00 +20°C° 0 mm 2 mps 762 mmHg 63%
    18:00 +19°C° 0 mm 2 mps 762 mmHg 68%
    19:00 +19°C° 0 mm 1 mps 762 mmHg 74%
    20:00 +18°C° 0 mm 1 mps 762 mmHg 79%
    21:00 +15°C° 0 mm 1 mps 762 mmHg 84%
    22:00 +14°C° 0 mm 2 mps 762 mmHg 85%
    23:00 +14°C° 0 mm 2 mps 762 mmHg 85%

    2 June, Tuesday

    Time Temperature Precipitation Wind Pressure Humidity
    00:00 +12°C° 0 mm 3 mps 761 mmHg 85%
    01:00 +12°C° 0 mm 3 mps 761 mmHg 85%
    02:00 +12°C° 0 mm 3 mps 761 mmHg 85%
    03:00 +11°C° 0 mm 3 mps 761 mmHg 85%
    04:00 +12°C° 0 mm 3 mps 761 mmHg 84%
    05:00 +12°C° 0 mm 4 mps 760 mmHg 84%
    06:00 +13°C° 0 mm 4 mps 760 mmHg 83%
    07:00 +14°C° 0 mm 4 mps 760 mmHg 77%
    08:00 +17°C° 0 mm 3 mps 760 mmHg 72%
    09:00 +18°C° 0 mm 3 mps 760 mmHg 66%
    10:00 +19°C° 0 mm 3 mps 760 mmHg 64%
    11:00 +20°C° 0 mm 2 mps 759 mmHg 62%
    12:00 +21°C° 0 mm 2 mps 759 mmHg 60%
    13:00 +22°C° 0 mm 1 mps 758 mmHg 59%
    14:00 +22°C° 0 mm 1 mps 758 mmHg 59%
    15:00 +22°C° 0 mm 1 mps 757 mmHg 59%
    16:00 +21°C° 0 mm 2 mps 757 mmHg 62%
    17:00 +20°C° 0 mm 3 mps 757 mmHg 65%
    18:00 +20°C° 0 mm 3 mps 756 mmHg 68%
    19:00 +19°C° 0 mm 4 mps 756 mmHg 72%
    20:00 +18°C° 0 mm 4 mps 756 mmHg 75%
    21:00 +17°C° 0 mm 4 mps 756 mmHg 78%
    22:00 +15°C° 0.3 mm 5 mps 755 mmHg 84%
    23:00 +15°C° 0.3 mm 5 mps 755 mmHg 89%

    3 June, Wednesday

    Time Temperature Precipitation Wind Pressure Humidity
    00:00 +14°C° 0.3 mm 5 mps 755 mmHg 94%
    01:00 +14°C° 0.5 mm 5 mps 754 mmHg 94%
    02:00 +14°C° 0.5 mm 5 mps 754 mmHg 95%
    03:00 +14°C° 0.5 mm 4 mps 753 mmHg 95%
    04:00 +13°C° 3 mm 5 mps 753 mmHg 96%
    05:00 +13°C° 3 mm 6 mps 753 mmHg 96%
    06:00 +13°C° 3 mm 6 mps 753 mmHg 96%
    07:00 +13°C° 1.6 mm 6 mps 753 mmHg 96%
    08:00 +14°C° 1.6 mm 6 mps 753 mmHg 95%
    09:00 +14°C° 1.6 mm 6 mps 753 mmHg 94%
    10:00 +15°C° 0.1 mm 7 mps 753 mmHg 92%
    11:00 +15°C° 0.1 mm 7 mps 752 mmHg 89%
    12:00 +16°C° 0.1 mm 7 mps 752 mmHg 87%
    13:00 +17°C° 0.2 mm 7 mps 752 mmHg 83%
    14:00 +18°C° 0.2 mm 7 mps 752 mmHg 80%
    15:00 +20°C° 0.2 mm 7 mps 751 mmHg 76%
    16:00 +20°C° 0.3 mm 7 mps 751 mmHg 78%
    17:00 +18°C° 0.3 mm 7 mps 751 mmHg 81%
    18:00 +18°C° 0.3 mm 7 mps 751 mmHg 83%
    19:00 +17°C° 0 mm 8 mps 751 mmHg 85%
    20:00 +15°C° 0 mm 8 mps 752 mmHg 87%
    21:00 +13°C° 0 mm 8 mps 752 mmHg 88%
    22:00 +13°C° 0 mm 8 mps 752 mmHg 88%
    23:00 +12°C° 0 mm 8 mps 752 mmHg 88%
    Show more